Time,TemperatureF,DewpointF,PressureIn,WindDirection,WindDirectionDegrees,WindSpeedMPH,WindSpeedGustMPH,Humidity,HourlyPrecipIn,Conditions,Clouds,dailyrainin,SolarRadiationWatts/m^2,SoftwareType,DateUTC
2013-04-01 00:03:00,61.0,60.0,-100.00,SSE,149,2.0,4.0,96,0.00,,,0.26,0.000000,,2013-04-01 04:03:00,
2013-04-01 00:12:00,61.0,59.0,-100.00,South,190,2.0,8.0,94,0.00,,,0.16,0.000000,,2013-04-01 04:12:00,
2013-04-01 00:33:00,61.0,59.0,-100.00,South,190,2.0,8.0,94,0.00,,,0.16,0.000000,,2013-04-01 04:33:00,
2013-04-01 00:44:00,61.0,59.0,-100.00,South,190,2.0,8.0,94,0.00,,,0.16,0.000000,,2013-04-01 04:44:00,
2013-04-01 00:53:00,61.0,59.0,-100.00,South,190,2.0,8.0,94,0.00,,,0.16,0.000000,,2013-04-01 04:53:00,
2013-04-01 01:03:00,61.0,59.0,-100.00,South,190,2.0,8.0,94,0.00,,,0.16,0.000000,,2013-04-01 05:03:00,
2013-04-01 01:12:00,59.0,58.0,-100.00,SW,224,2.0,9.0,96,0.16,,,0.30,0.000000,,2013-04-01 05:12:00,
2013-04-01 01:33:00,59.0,58.0,-100.00,SW,224,2.0,9.0,96,0.16,,,0.30,0.000000,,2013-04-01 05:33:00,
2013-04-01 01:43:00,59.0,58.0,-100.00,SW,224,2.0,9.0,96,0.16,,,0.30,0.000000,,2013-04-01 05:43:00,
2013-04-01 01:53:00,59.0,58.0,-100.00,SW,224,2.0,9.0,96,0.16,,,0.30,0.000000,,2013-04-01 05:53:00,
2013-04-01 02:02:00,59.0,58.0,-100.00,SW,224,2.0,9.0,96,0.16,,,0.30,0.000000,,2013-04-01 06:02:00,
2013-04-01 02:12:00,59.0,58.0,-100.00,SW,226,3.0,7.0,97,0.18,,,0.48,0.000000,,2013-04-01 06:12:00,
2013-04-01 02:34:00,59.0,58.0,-100.00,SW,226,3.0,7.0,97,0.18,,,0.48,0.000000,,2013-04-01 06:34:00,
2013-04-01 02:43:00,59.0,58.0,-100.00,SW,226,3.0,7.0,97,0.18,,,0.48,0.000000,,2013-04-01 06:43:00,
2013-04-01 02:53:00,59.0,58.0,-100.00,SW,226,3.0,7.0,97,0.18,,,0.48,0.000000,,2013-04-01 06:53:00,
2013-04-01 03:03:00,59.0,58.0,-100.00,SW,226,3.0,7.0,97,0.18,,,0.48,0.000000,,2013-04-01 07:03:00,
2013-04-01 03:12:00,58.0,57.0,-100.00,SW,229,1.0,7.0,98,0.11,,,-99.99,0.000000,,2013-04-01 07:12:00,
2013-04-01 03:32:00,58.0,57.0,-100.00,SW,229,1.0,7.0,98,0.11,,,-99.99,0.000000,,2013-04-01 07:32:00,
2013-04-01 03:43:00,58.0,57.0,-100.00,SW,229,1.0,7.0,98,0.11,,,-99.99,0.000000,,2013-04-01 07:43:00,
2013-04-01 03:53:00,58.0,57.0,-100.00,SW,229,1.0,7.0,98,0.11,,,-99.99,0.000000,,2013-04-01 07:53:00,
2013-04-01 04:03:00,58.0,57.0,-100.00,SW,229,1.0,7.0,98,0.11,,,-99.99,0.000000,,2013-04-01 08:03:00,
2013-04-01 04:12:00,58.0,58.0,-100.00,WSW,240,1.0,9.0,99,0.14,,,0.72,0.000000,,2013-04-01 08:12:00,
2013-04-01 04:32:00,58.0,58.0,-100.00,WSW,240,1.0,9.0,99,0.14,,,0.72,0.000000,,2013-04-01 08:32:00,
2013-04-01 04:43:00,58.0,58.0,-100.00,WSW,240,1.0,9.0,99,0.14,,,0.72,0.000000,,2013-04-01 08:43:00,
2013-04-01 04:53:00,58.0,58.0,-100.00,WSW,240,1.0,9.0,99,0.14,,,0.72,0.000000,,2013-04-01 08:53:00,
2013-04-01 05:02:00,58.0,58.0,-100.00,WSW,240,1.0,9.0,99,0.14,,,0.72,0.000000,,2013-04-01 09:02:00,
2013-04-01 05:12:00,58.0,58.0,-100.00,West,264,0.0,6.0,99,0.11,,,0.83,0.000000,,2013-04-01 09:12:00,
2013-04-01 05:43:00,58.0,58.0,-100.00,West,264,0.0,6.0,99,0.11,,,0.83,0.000000,,2013-04-01 09:43:00,
2013-04-01 05:54:00,58.0,58.0,-100.00,West,264,0.0,6.0,99,0.11,,,0.83,0.000000,,2013-04-01 09:54:00,
2013-04-01 06:03:00,58.0,58.0,-100.00,West,264,0.0,6.0,99,0.11,,,0.83,0.000000,,2013-04-01 10:03:00,
2013-04-01 06:12:00,58.0,58.0,-100.00,SSW,208,0.0,3.0,99,0.08,,,0.91,0.000000,,2013-04-01 10:12:00,
2013-04-01 06:34:00,58.0,58.0,-100.00,SSW,208,0.0,3.0,99,0.08,,,0.91,0.000000,,2013-04-01 10:34:00,
2013-04-01 06:43:00,58.0,58.0,-100.00,SSW,208,0.0,3.0,99,0.08,,,0.91,0.000000,,2013-04-01 10:43:00,
2013-04-01 06:53:00,58.0,58.0,-100.00,SSW,208,0.0,3.0,99,0.08,,,0.91,0.000000,,2013-04-01 10:53:00,
2013-04-01 07:03:00,58.0,58.0,-100.00,SSW,208,0.0,3.0,99,0.08,,,0.91,0.000000,,2013-04-01 11:03:00,
2013-04-01 07:12:00,58.0,58.0,-100.00,SW,214,3.0,7.0,99,0.00,,,0.90,0.000000,,2013-04-01 11:12:00,
2013-04-01 07:33:00,58.0,58.0,-100.00,SW,214,3.0,7.0,99,0.00,,,0.90,0.000000,,2013-04-01 11:33:00,
2013-04-01 07:43:00,58.0,58.0,-100.00,SW,214,3.0,7.0,99,0.00,,,0.90,0.000000,,2013-04-01 11:43:00,
2013-04-01 07:53:00,58.0,58.0,-100.00,SW,214,3.0,7.0,99,0.00,,,0.90,0.000000,,2013-04-01 11:53:00,
2013-04-01 08:03:00,58.0,58.0,-100.00,SW,214,3.0,7.0,99,0.00,,,0.90,0.000000,,2013-04-01 12:03:00,
2013-04-01 08:12:00,58.0,58.0,-100.00,SW,220,2.0,7.0,99,0.00,,,-99.99,3.000000,,2013-04-01 12:12:00,
2013-04-01 08:43:00,58.0,58.0,-100.00,SW,220,2.0,7.0,99,0.00,,,-99.99,3.000000,,2013-04-01 12:43:00,
2013-04-01 08:53:00,58.0,58.0,-100.00,SW,220,2.0,7.0,99,0.00,,,-99.99,3.000000,,2013-04-01 12:53:00,
2013-04-01 09:03:00,58.0,58.0,-100.00,SW,220,2.0,7.0,99,0.00,,,-99.99,3.000000,,2013-04-01 13:03:00,
2013-04-01 09:12:00,59.0,59.0,-100.00,WSW,253,0.0,5.0,99,0.00,,,-99.99,29.000000,,2013-04-01 13:12:00,
2013-04-01 09:43:00,59.0,59.0,-100.00,WSW,253,0.0,5.0,99,0.00,,,-99.99,29.000000,,2013-04-01 13:43:00,
2013-04-01 09:53:00,59.0,59.0,-100.00,WSW,253,0.0,5.0,99,0.00,,,-99.99,29.000000,,2013-04-01 13:53:00,
2013-04-01 10:04:00,59.0,59.0,-100.00,WSW,253,0.0,5.0,99,0.00,,,-99.99,29.000000,,2013-04-01 14:04:00,
2013-04-01 10:12:00,60.0,59.0,-100.00,NW,319,0.0,3.0,98,0.00,,,0.89,62.000000,,2013-04-01 14:12:00,
2013-04-01 10:43:00,60.0,59.0,-100.00,NW,319,0.0,3.0,98,0.00,,,0.89,62.000000,,2013-04-01 14:43:00,
2013-04-01 10:53:00,60.0,59.0,-100.00,NW,319,0.0,3.0,98,0.00,,,0.89,62.000000,,2013-04-01 14:53:00,
2013-04-01 11:03:00,60.0,59.0,-100.00,NW,319,0.0,3.0,98,0.00,,,0.89,62.000000,,2013-04-01 15:03:00,
2013-04-01 11:12:00,64.0,58.0,-100.00,NW,315,1.0,4.0,81,0.00,,,0.89,292.000000,,2013-04-01 15:12:00,
2013-04-01 11:44:00,64.0,58.0,-100.00,NW,315,1.0,4.0,81,0.00,,,0.89,292.000000,,2013-04-01 15:44:00,
2013-04-01 11:54:00,64.0,58.0,-100.00,NW,315,1.0,4.0,81,0.00,,,0.89,292.000000,,2013-04-01 15:54:00,
2013-04-01 12:03:00,64.0,58.0,-100.00,NW,315,1.0,4.0,81,0.00,,,0.89,292.000000,,2013-04-01 16:03:00,
2013-04-01 13:12:00,72.0,55.0,-100.00,WSW,255,2.0,7.0,55,-99.99,,,0.89,734.000000,,2013-04-01 17:12:00,
2013-04-01 13:32:00,72.0,55.0,-100.00,WSW,255,2.0,7.0,55,-99.99,,,0.89,734.000000,,2013-04-01 17:32:00,
2013-04-01 13:42:00,72.0,55.0,-100.00,WSW,255,2.0,7.0,55,-99.99,,,0.89,734.000000,,2013-04-01 17:42:00,
2013-04-01 13:53:00,72.0,55.0,-100.00,WSW,255,2.0,7.0,55,-99.99,,,0.89,734.000000,,2013-04-01 17:53:00,
2013-04-01 14:03:00,72.0,55.0,-100.00,WSW,255,2.0,7.0,55,-99.99,,,0.89,734.000000,,2013-04-01 18:03:00,
2013-04-01 14:12:00,74.0,50.0,-100.00,West,269,3.0,6.0,43,0.00,,,0.89,652.000000,,2013-04-01 18:12:00,
2013-04-01 14:43:00,74.0,50.0,-100.00,West,269,3.0,6.0,43,0.00,,,0.89,652.000000,,2013-04-01 18:43:00,
2013-04-01 14:54:00,74.0,50.0,-100.00,West,269,3.0,6.0,43,0.00,,,0.89,652.000000,,2013-04-01 18:54:00,
2013-04-01 15:04:00,74.0,50.0,-100.00,West,269,3.0,6.0,43,0.00,,,0.89,652.000000,,2013-04-01 19:04:00,
2013-04-01 15:12:00,76.0,44.0,-100.00,WSW,245,3.0,9.0,32,0.00,,,0.89,776.000000,,2013-04-01 19:12:00,
2013-04-01 15:43:00,76.0,44.0,-100.00,WSW,245,3.0,9.0,32,0.00,,,0.89,776.000000,,2013-04-01 19:43:00,
2013-04-01 15:53:00,76.0,44.0,-100.00,WSW,245,3.0,9.0,32,0.00,,,0.89,776.000000,,2013-04-01 19:53:00,
2013-04-01 16:02:00,76.0,44.0,-100.00,WSW,245,3.0,9.0,32,0.00,,,0.89,776.000000,,2013-04-01 20:02:00,
2013-04-01 16:12:00,77.0,39.0,-100.00,WNW,289,2.0,12.0,26,0.00,,,0.89,758.000000,,2013-04-01 20:12:00,
2013-04-01 16:43:00,77.0,39.0,-100.00,WNW,289,2.0,12.0,26,0.00,,,0.89,758.000000,,2013-04-01 20:43:00,
2013-04-01 16:52:00,77.0,39.0,-100.00,WNW,289,2.0,12.0,26,0.00,,,0.89,758.000000,,2013-04-01 20:52:00,
2013-04-01 17:03:00,77.0,39.0,-100.00,WNW,289,2.0,12.0,26,0.00,,,0.89,758.000000,,2013-04-01 21:03:00,
2013-04-01 17:12:00,76.0,34.0,-100.00,NW,310,2.0,8.0,22,0.00,,,0.79,492.000000,,2013-04-01 21:12:00,
2013-04-01 17:44:00,76.0,34.0,-100.00,NW,310,2.0,8.0,22,0.00,,,0.79,492.000000,,2013-04-01 21:44:00,
2013-04-01 17:53:00,76.0,34.0,-100.00,NW,310,2.0,8.0,22,0.00,,,0.79,492.000000,,2013-04-01 21:53:00,
2013-04-01 18:03:00,76.0,34.0,-100.00,NW,310,2.0,8.0,22,0.00,,,0.79,492.000000,,2013-04-01 22:03:00,
2013-04-01 18:12:00,75.0,35.0,-100.00,NW,314,3.0,11.0,23,0.00,,,0.78,122.000000,,2013-04-01 22:12:00,
2013-04-01 18:33:00,75.0,35.0,-100.00,NW,314,3.0,11.0,23,0.00,,,0.78,122.000000,,2013-04-01 22:33:00,
2013-04-01 18:43:00,75.0,35.0,-100.00,NW,314,3.0,11.0,23,0.00,,,0.78,122.000000,,2013-04-01 22:43:00,
2013-04-01 18:52:00,75.0,35.0,-100.00,NW,314,3.0,11.0,23,0.00,,,0.78,122.000000,,2013-04-01 22:52:00,
2013-04-01 19:02:00,75.0,35.0,-100.00,NW,314,3.0,11.0,23,0.00,,,0.78,122.000000,,2013-04-01 23:02:00,
2013-04-01 19:12:00,71.0,36.0,-100.00,NW,319,2.0,6.0,28,0.00,,,0.78,92.000000,,2013-04-01 23:12:00,
2013-04-01 19:43:00,71.0,36.0,-100.00,NW,319,2.0,6.0,28,0.00,,,0.78,92.000000,,2013-04-01 23:43:00,
2013-04-01 19:53:00,71.0,36.0,-100.00,NW,319,2.0,6.0,28,0.00,,,0.78,92.000000,,2013-04-01 23:53:00,
2013-04-01 20:03:00,71.0,36.0,-100.00,NW,319,2.0,6.0,28,0.00,,,0.78,92.000000,,2013-04-02 00:03:00,
2013-04-01 20:12:00,66.0,38.0,-100.00,NW,315,0.0,7.0,36,0.00,,,0.78,7.000000,,2013-04-02 00:12:00,
2013-04-01 20:33:00,66.0,38.0,-100.00,NW,315,0.0,7.0,36,0.00,,,0.78,7.000000,,2013-04-02 00:33:00,
2013-04-01 20:43:00,66.0,38.0,-100.00,NW,315,0.0,7.0,36,0.00,,,0.78,7.000000,,2013-04-02 00:43:00,
2013-04-01 20:53:00,66.0,38.0,-100.00,NW,315,0.0,7.0,36,0.00,,,0.78,7.000000,,2013-04-02 00:53:00,
2013-04-01 21:03:00,66.0,38.0,-100.00,NW,315,0.0,7.0,36,0.00,,,0.78,7.000000,,2013-04-02 01:03:00,
2013-04-01 21:12:00,61.0,39.0,-100.00,NNW,329,0.0,2.0,44,0.00,,,0.78,0.000000,,2013-04-02 01:12:00,
2013-04-01 21:32:00,61.0,39.0,-100.00,NNW,329,0.0,2.0,44,0.00,,,0.78,0.000000,,2013-04-02 01:32:00,
2013-04-01 21:43:00,61.0,39.0,-100.00,NNW,329,0.0,2.0,44,0.00,,,0.78,0.000000,,2013-04-02 01:43:00,
2013-04-01 21:53:00,61.0,39.0,-100.00,NNW,329,0.0,2.0,44,0.00,,,0.78,0.000000,,2013-04-02 01:53:00,
2013-04-01 22:03:00,61.0,39.0,-100.00,NNW,329,0.0,2.0,44,0.00,,,0.78,0.000000,,2013-04-02 02:03:00,
2013-04-01 22:12:00,58.0,40.0,-100.00,NNW,329,0.0,0.0,51,0.00,,,0.78,0.000000,,2013-04-02 02:12:00,
2013-04-01 22:43:00,58.0,40.0,-100.00,NNW,329,0.0,0.0,51,0.00,,,0.78,0.000000,,2013-04-02 02:43:00,
2013-04-01 22:53:00,58.0,40.0,-100.00,NNW,329,0.0,0.0,51,0.00,,,0.78,0.000000,,2013-04-02 02:53:00,
2013-04-01 23:02:00,58.0,40.0,-100.00,NNW,329,0.0,0.0,51,0.00,,,0.78,0.000000,,2013-04-02 03:02:00,
2013-04-01 23:12:00,55.0,41.0,-100.00,NNW,329,0.0,0.0,58,0.00,,,0.78,0.000000,,2013-04-02 03:12:00,
2013-04-01 23:33:00,55.0,41.0,-100.00,NNW,329,0.0,0.0,58,0.00,,,0.78,0.000000,,2013-04-02 03:33:00,
2013-04-01 23:43:00,55.0,41.0,-100.00,NNW,329,0.0,0.0,58,0.00,,,0.78,0.000000,,2013-04-02 03:43:00,
2013-04-01 23:53:00,55.0,41.0,-100.00,NNW,329,0.0,0.0,58,0.00,,,0.78,0.000000,,2013-04-02 03:53:00,